This is the latest recevied weather packets stored in our database for station/object MB7UKY-10. If no packets are shown the sender has not sent any weather packets the latest 10 day(s).
| Time | Temp. | Humidity | Pressure | Rain* | Wind** | Luminosity | Snow |
|---|---|---|---|---|---|---|---|
| 1777755219 | 23.89° C | 46% | 1007.3 hPa | - | - | - | - |
| 1777754317 | 23.89° C | 46% | 1007.5 hPa | - | - | - | - |
| 1777753416 | 23.89° C | 46% | 1007.5 hPa | - | - | - | - |
| 1777752515 | 24.44° C | 45% | 1007.3 hPa | - | - | - | - |
| 1777751615 | 24.44° C | 45% | 1007.1 hPa | - | - | - | - |
| 1777750714 | 25° C | 44% | 1006.8 hPa | - | - | - | - |
| 1777749813 | 25° C | 44% | 1006.8 hPa | - | - | - | - |
| 1777748912 | 25.56° C | 43% | 1006.7 hPa | - | - | - | - |
| 1777748012 | 26.11° C | 43% | 1006.8 hPa | - | - | - | - |
| 1777747111 | 26.11° C | 42% | 1006.8 hPa | - | - | - | - |
| 1777746210 | 26.67° C | 42% | 1006.9 hPa | - | - | - | - |
| 1777745309 | 27.22° C | 42% | 1006.8 hPa | - | - | - | - |
| 1777744409 | 27.78° C | 42% | 1007.1 hPa | - | - | - | - |
| 1777743508 | 27.78° C | 41% | 1007.1 hPa | - | - | - | - |
| 1777742607 | 28.33° C | 42% | 1007.2 hPa | - | - | - | - |
| 1777741706 | 28.33° C | 43% | 1007.3 hPa | - | - | - | - |
| 1777740806 | 27.78° C | 44% | 1007.7 hPa | - | - | - | - |
| 1777739905 | 27.78° C | 44% | 1008 hPa | - | - | - | - |
| 1777739004 | 27.22° C | 45% | 1008.3 hPa | - | - | - | - |
| 1777738103 | 26.67° C | 45% | 1008.4 hPa | - | - | - | - |
| 1777737203 | 26.11° C | 45% | 1008.5 hPa | - | - | - | - |
| 1777736302 | 26.11° C | 45% | 1008.4 hPa | - | - | - | - |
| 1777735401 | 26.11° C | 44% | 1008.7 hPa | - | - | - | - |
| 1777734498 | 26.11° C | 44% | 1009 hPa | - | - | - | - |
| 1777733597 | 25.56° C | 45% | 1009.2 hPa | - | - | - | - |
* Rain since midnight (hover to see other rain measurements)
** Current wind speed in m/s (hover to see current wind gust speed)